Hourly Data Report for March 12, 2019

TORONTO CITY
ONTARIO
Current Station Operator: ECCC - MSC

43°40'00.000" N
79°24'00.000" W
112.50 m
6158355
71508
XTO

Download Data

Hourly Data (March 2019)
Hourly Data Report for March 12, 2019
TIME
LST
Temp Definition
°C
Dew Point Definition
°C
Rel Hum Definition
%
Precip. Amount Definition
mm

Wind Dir Definition
10's deg

Wind Spd Definition
km/h
Visibility Definition
km
Stn Press Definition
kPa
Hmdx Definition


Wind Chill Definition


Weather Definition


00:00 -0.7 -6.6 64 0.0 LegendMM LegendMM   100.90     LegendNANA
01:00 -0.8 -6.2 66 0.0 LegendMM LegendMM   100.96     LegendNANA
02:00 -0.9 -6.2 67 0.0 LegendMM LegendMM   101.01     LegendNANA
03:00 -1.4 -8.6 58 0.0 LegendMM LegendMM   101.03     LegendNANA
04:00 -1.6 -8.1 61 0.0 LegendMM LegendMM   101.05     LegendNANA
05:00 -1.8 -8.9 58 0.0 LegendMM LegendMM   101.11     LegendNANA
06:00 -1.8 -8.6 60 0.0 LegendMM LegendMM   101.18     LegendNANA
07:00 -1.8 -8.4 61 0.0 LegendMM LegendMM   101.25     LegendNANA
08:00 -1.4 -8.9 57 0.0 LegendMM LegendMM   101.28     LegendNANA
09:00 -0.5 -8.7 54 0.2 LegendMM LegendMM   101.32     LegendNANA
10:00 0.3 -8.2 53 0.0 LegendMM LegendMM   101.36     LegendNANA
11:00 0.8 -8.1 51 0.0 LegendMM LegendMM   101.33     LegendNANA
12:00 2.5 -8.5 44 0.0 LegendMM LegendMM   101.30     LegendNANA
13:00 3.1 -8.8 41 0.0 LegendMM LegendMM   101.25     LegendNANA
14:00 2.5 -7.0 50 0.0 LegendMM LegendMM   101.21     LegendNANA
15:00 3.6 -8.5 41 0.0 LegendMM LegendMM   101.17     LegendNANA
16:00 3.4 -8.0 43 0.0 LegendMM LegendMM   101.18     LegendNANA
17:00 3.3 -8.4 42 0.0 LegendMM LegendMM   101.18     LegendNANA
18:00 3.0 -8.7 42 0.0 LegendMM LegendMM   101.14     LegendNANA
19:00 2.5 -7.8 47 0.0 LegendMM LegendMM   101.13     LegendNANA
20:00 1.8 -4.7 62 0.0 LegendMM LegendMM   101.15     LegendNANA
21:00 0.8 -2.8 77 0.0 LegendMM LegendMM   101.17     LegendNANA
22:00 0.3 -4.0 73 0.0 LegendMM LegendMM   101.16     LegendNANA
23:00 0.1 -5.7 65 0.0 LegendMM LegendMM   101.11     LegendNANA

Notes on Data Quality.

Legend

  • E = Estimated
  • M = Missing
  • NA = Not Available*
  • [empty] = Indicates an unobserved value
Date modified: